Location: Fuglau
(48.6333°N, 15.5500°E)
Time: 03:30:13
(UTC+00:00)

Cosmos 1937 Rocket - Pass Details

Date: 27 February 2020
Orbit: 747 x 780 km, 74.0° (Epoch: 29 March)

Event Time Altitude Azimuth Distance (km) Brightness Sun altitude
Rises 18:05:03 0° 336° (NNW) 3,255 7.2 -15.2°
Reaches altitude 10° 18:07:27 10° 337° (NNW) 2,319 6.4 -15.6°
Maximum altitude 18:12:43 89° 247° (WSW) 770 3.5 -16.5°
Drops below altitude 10° 18:17:54 10° 160° (SSE) 2,280 5.7 -17.3°
Enters shadow 18:19:02 - 160° (SSE) 2,721 6.1 -17.5°
